DW4078 Weather Reports


Display with metric or nautical units.
time (UTC)temp
F
wind
direction
speed
MPH
gust
MPH
rain 1hr
in
rain 24hr
in
rain mn
in
humidity
%
barometer
mb
20260503184602 59 268 7.0 17.0 0.00 0.00 0.00 40 1014.0
20260503184302 59 265 6.0 16.0 0.00 0.00 0.00 38 1013.9
20260503184202 59 260 5.0 16.0 0.00 0.00 0.00 37 1014.2
20260503184102 60 254 5.0 13.0 0.00 0.00 0.00 38 1014.3
20260503184002 61 252 5.0 14.0 0.00 0.00 0.00 38 1014.2
20260503183603 60 242 6.0 23.0 0.00 0.00 0.00 39 1014.3
20260503183523 60 234 6.0 23.0 0.00 0.00 0.00 40 1014.3
20260503183403 58 231 7.0 23.0 0.00 0.00 0.00 40 1014.3
20260503183202 58 226 8.0 23.0 0.00 0.00 0.00 39 1014.4
20260503183102 59 223 8.0 23.0 0.00 0.00 0.00 39 1014.5
20260503182802 60 190 7.0 17.0 0.00 0.00 0.00 39 1014.2
20260503182602 59 197 6.0 17.0 0.00 0.00 0.00 40 1014.4
20260503182523 59 201 6.0 17.0 0.00 0.00 0.00 41 1014.3
20260503182402 59 201 6.0 17.0 0.00 0.00 0.00 41 1014.4
20260503182202 60 210 6.0 18.0 0.00 0.00 0.00 39 1014.5
20260503182102 60 214 6.0 18.0 0.00 0.00 0.00 39 1014.2
20260503181902 59 233 6.0 18.0 0.00 0.00 0.00 40 1014.4
20260503181603 59 231 7.0 18.0 0.00 0.00 0.00 39 1014.4
20260503181402 59 230 7.0 18.0 0.00 0.00 0.00 40 1014.5
20260503181202 59 234 7.0 15.0 0.00 0.00 0.00 43 1014.4
20260503180323 58 248 7.0 17.0 0.00 0.00 0.00 42 1014.6
20260503180202 58 241 7.0 17.0 0.00 0.00 0.00 41 1014.5
20260503180003 58 242 7.0 17.0 0.00 0.00 0.00 41 1014.8
20260503175502 60 230 6.0 14.0 0.00 0.00 0.00 42 1014.7
20260503175202 59 221 6.0 14.0 0.00 0.00 0.00 42 1014.7
20260503175102 59 222 7.0 15.0 0.00 0.00 0.00 41 1014.8
20260503174602 60 228 6.0 17.0 0.00 0.00 0.00 40 1014.6
20260503174402 59 229 7.0 17.0 0.00 0.00 0.00 42 1014.7
20260503174202 59 237 6.0 17.0 0.00 0.00 0.00 42 1014.9
20260503174102 59 237 6.0 17.0 0.00 0.00 0.00 41 1014.8
20260503173902 59 233 5.0 16.0 0.00 0.00 0.00 42 1015.0
20260503173202 60 248 5.0 15.0 0.00 0.00 0.00 42 1014.9
20260503172902 59 249 5.0 15.0 0.00 0.00 0.00 45 1015.0
20260503172802 58 242 5.0 15.0 0.00 0.00 0.00 44 1014.9
20260503172602 58 237 5.0 15.0 0.00 0.00 0.00 43 1015.1
20260503172402 58 231 5.0 13.0 0.00 0.00 0.00 42 1015.0
20260503172202 60 228 4.0 11.0 0.00 0.00 0.00 42 1014.9
20260503172102 60 224 4.0 14.0 0.00 0.00 0.00 43 1014.9
20260503172002 60 221 5.0 15.0 0.00 0.00 0.00 42 1014.9
20260503171802 59 225 6.0 15.0 0.00 0.00 0.00 42 1015.1
20260503171702 58 218 6.0 15.0 0.00 0.00 0.00 43 1015.1
20260503171602 58 219 6.0 15.0 0.00 0.00 0.00 43 1015.2
20260503171503 58 214 6.0 15.0 0.00 0.00 0.00 42 1014.9
20260503171302 58 214 6.0 15.0 0.00 0.00 0.00 41 1014.9
20260503171002 58 221 6.0 14.0 0.00 0.00 0.00 42 1015.1
20260503170603 58 243 6.0 15.0 0.00 0.00 0.00 43 1015.3
20260503170502 58 243 6.0 15.0 0.00 0.00 0.00 42 1015.2
20260503170402 58 246 6.0 15.0 0.00 0.00 0.00 42 1015.2
20260503170202 58 246 6.0 15.0 0.00 0.00 0.00 42 1015.2
20260503150902 54 211 4.0 13.0 0.00 0.00 0.00 42 1016.5
20260503140302 50 168 3.0 6.0 0.00 0.00 0.00 46 1016.6
20260503140202 50 169 3.0 6.0 0.00 0.00 0.00 47 1016.6
20260503131402 47 198 3.0 8.0 0.00 0.00 0.00 51 1016.8
20260503131023 47 205 3.0 10.0 0.00 0.00 0.00 49 1017.0
20260503130902 47 200 3.0 10.0 0.00 0.00 0.00 50 1016.6
20260503130624 47 201 3.0 10.0 0.00 0.00 0.00 50 1016.7
20260503110802 31 117 0.0 1.0 0.00 0.05 0.00 92 1016.5
20260503110602 31 116 0.0 1.0 0.00 0.06 0.00 93 1016.5
20260503110123 31 117 0.0 1.0 0.00 0.06 0.00 93 1016.3
20260503090503 34 130 1.0 2.0 0.00 0.13 0.00 84 1016.3
20260503090402 34 131 1.0 2.0 0.00 0.13 0.00 85 1016.2
20260503090302 34 131 1.0 2.0 0.00 0.13 0.00 85 1016.3
20260503081602 34 0 0.0 0.0 0.00 0.13 0.00 87 1016.3
20260503081503 34 0 0.0 0.0 0.00 0.13 0.00 87 1016.3
20260503081324 34 0 0.0 0.0 0.00 0.13 0.00 87 1016.3
20260503081203 34 0 0.0 0.0 0.00 0.13 0.00 87 1016.4
20260503081102 34 0 0.0 0.0 0.00 0.13 0.00 86 1016.1
20260503081003 34 0 0.0 0.0 0.00 0.13 0.00 87 1016.4
20260503080702 34 128 0.0 2.0 0.00 0.13 0.00 87 1016.5
20260503080302 34 128 0.0 2.0 0.00 0.13 0.00 87 1016.2
20260503072902 33 0 0.0 0.0 0.00 0.13 0.00 89 1016.1
20260503072803 33 0 0.0 0.0 0.00 0.13 0.00 89 1016.4
20260503072624 33 0 0.0 0.0 0.00 0.13 0.00 88 1016.2
20260503072403 33 0 0.0 0.0 0.00 0.13 0.00 89 1016.2
20260503072202 34 116 0.0 1.0 0.00 0.13 0.00 88 1016.2
20260503072102 34 116 0.0 1.0 0.00 0.13 0.00 88 1016.3
20260503071924 34 114 0.0 1.0 0.00 0.13 0.00 88 1016.3
20260503071803 34 114 0.0 1.0 0.00 0.13 0.00 88 1016.4
20260503071602 34 114 0.0 1.0 0.00 0.13 0.00 88 1016.2
20260503071402 34 114 0.0 1.0 0.00 0.13 0.00 88 1016.3
20260503071302 34 114 0.0 1.0 0.00 0.13 0.00 88 1016.3
20260503071102 34 114 0.0 1.0 0.00 0.13 0.00 88 1016.4
20260503070902 34 115 0.0 1.0 0.00 0.13 0.00 89 1016.3
20260503070702 34 115 0.0 1.0 0.00 0.13 0.00 88 1016.3
20260503070602 34 115 0.0 1.0 0.00 0.13 0.00 89 1016.3
20260503070502 34 113 0.0 1.0 0.00 0.13 0.00 89 1016.3
20260503070424 34 113 0.0 1.0 0.00 0.13 0.00 89 1016.4
20260503060324 33 0 0.0 0.0 0.00 0.13 0.00 91 1016.6
20260503055102 33 0 0.0 0.0 0.00 0.13 0.00 89 1016.5
20260503055002 33 0 0.0 0.0 0.00 0.13 0.00 89 1016.6
20260503054903 33 0 0.0 0.0 0.00 0.13 0.00 89 1016.7
20260503054803 34 0 0.0 0.0 0.00 0.13 0.00 89 1016.6
20260503054602 34 0 0.0 0.0 0.00 0.13 0.00 89 1016.5
20260503054103 34 0 0.0 0.0 0.00 0.14 0.00 88 1016.7
20260503054003 34 0 0.0 0.0 0.00 0.14 0.00 88 1016.6
20260503053902 34 0 0.0 0.0 0.00 0.14 0.00 88 1016.7
20260503053703 34 0 0.0 0.0 0.00 0.14 0.00 88 1016.7
20260503053603 34 0 0.0 0.0 0.00 0.14 0.00 88 1016.6
20260503053303 34 0 0.0 0.0 0.00 0.14 0.00 87 1016.6
20260503053203 35 0 0.0 0.0 0.00 0.14 0.00 87 1016.7
20260503053002 35 0 0.0 0.0 0.00 0.14 0.00 86 1016.7
20260503052423 35 0 0.0 0.0 0.00 0.14 0.00 85 1016.5
20260503052305 35 0 0.0 0.0 0.00 0.14 0.00 85 1016.5
20260503052002 35 0 0.0 0.0 0.00 0.14 0.00 85 1016.8
20260503051923 35 0 0.0 0.0 0.00 0.14 0.00 85 1016.7
20260503051602 35 0 0.0 0.0 0.00 0.14 0.00 85 1016.7
20260503050903 35 0 0.0 0.0 0.00 0.14 0.00 86 1016.7
20260503050703 35 0 0.0 0.0 0.00 0.14 0.00 85 1016.7
20260503050303 35 0 0.0 0.0 0.00 0.14 0.00 85 1016.7
20260503050003 35 0 0.0 0.0 0.00 0.15 0.00 85 1016.6
20260503045902 35 0 0.0 0.0 0.00 0.15 0.00 85 1016.6
20260503045703 35 0 0.0 0.0 0.00 0.15 0.00 85 1016.6
20260503045502 35 0 0.0 0.0 0.00 0.15 0.00 84 1016.7
20260503045403 35 0 0.0 0.0 0.00 0.15 0.00 84 1016.8
20260503044803 35 0 0.0 0.0 0.00 0.15 0.00 83 1016.7
20260503044624 35 0 0.0 0.0 0.00 0.15 0.00 83 1016.9
20260503044524 35 0 0.0 0.0 0.00 0.15 0.00 83 1016.8
20260503043703 36 0 0.0 0.0 0.00 0.15 0.00 83 1016.7
20260503043624 36 0 0.0 0.0 0.00 0.15 0.00 83 1016.7
20260503043303 36 0 0.0 0.0 0.00 0.15 0.00 82 1016.8
20260503043103 36 0 0.0 0.0 0.00 0.15 0.00 82 1016.7
20260503042802 36 0 0.0 0.0 0.00 0.15 0.00 81 1016.9
20260503042602 36 0 0.0 0.0 0.00 0.15 0.00 81 1016.7
20260503042502 36 0 0.0 0.0 0.00 0.15 0.00 81 1016.8
20260503042304 36 0 0.0 0.0 0.00 0.16 0.00 81 1016.7
20260503042102 36 0 0.0 0.0 0.00 0.16 0.00 81 1016.8
20260503042002 36 0 0.0 0.0 0.00 0.16 0.00 81 1016.9
20260503041702 37 0 0.0 0.0 0.00 0.16 0.00 81 1017.0
20260503041103 37 0 0.0 0.0 0.00 0.16 0.00 80 1016.8
20260503040903 37 0 0.0 0.0 0.00 0.16 0.00 80 1016.9
20260503040602 38 0 0.0 0.0 0.00 0.16 0.00 79 1016.9
20260503040003 38 0 0.0 0.0 0.00 0.16 0.00 78 1016.9
20260503035503 38 0 0.0 0.0 0.00 0.16 0.16 77 1016.9
20260503035102 38 0 0.0 0.0 0.00 0.16 0.16 77 1016.9
20260503035024 38 0 0.0 0.0 0.00 0.16 0.16 77 1016.9
20260503034623 38 0 0.0 0.0 0.00 0.16 0.16 78 1017.0
20260503034424 38 0 0.0 0.0 0.00 0.16 0.16 78 1016.9
20260503034203 38 0 0.0 0.0 0.00 0.16 0.16 78 1017.0
20260503034102 38 0 0.0 0.0 0.00 0.16 0.16 78 1016.9
20260503034002 38 0 0.0 0.0 0.00 0.16 0.16 78 1016.9
20260503033902 39 0 0.0 0.0 0.00 0.16 0.16 78 1017.1
20260503033802 39 0 0.0 0.0 0.00 0.16 0.16 78 1016.8
20260503033602 39 0 0.0 0.0 0.00 0.16 0.16 78 1016.8
20260503033302 39 0 0.0 0.0 0.00 0.16 0.16 78 1016.9
20260503033103 39 0 0.0 0.0 0.00 0.16 0.16 78 1017.0
20260503033003 39 0 0.0 0.0 0.00 0.16 0.16 78 1017.0
20260503032803 39 0 0.0 0.0 0.00 0.16 0.16 78 1017.0
20260503032502 39 124 0.0 1.0 0.00 0.16 0.16 78 1017.0
20260503032102 39 123 0.0 1.0 0.00 0.16 0.16 77 1017.1
20260503031902 39 123 0.0 1.0 0.00 0.16 0.16 77 1017.0
20260503031824 39 123 0.0 1.0 0.00 0.16 0.16 78 1016.9
20260503031624 39 123 0.0 1.0 0.00 0.16 0.16 76 1017.0
20260503031102 39 0 0.0 0.0 0.00 0.16 0.16 78 1017.1
20260503030902 39 0 0.0 0.0 0.00 0.16 0.16 79 1017.0
20260503030803 39 0 0.0 0.0 0.00 0.16 0.16 79 1017.1
20260503030623 39 0 0.0 0.0 0.00 0.16 0.16 79 1017.2
20260503030203 39 0 0.0 0.0 0.00 0.16 0.16 79 1017.1
20260503030003 39 0 0.0 0.0 0.00 0.16 0.16 79 1017.1
20260503025902 39 0 0.0 0.0 0.00 0.16 0.16 78 1017.1
20260503025603 39 0 0.0 0.0 0.00 0.16 0.16 78 1017.2
20260503025503 39 0 0.0 0.0 0.00 0.16 0.16 78 1017.1
20260503025202 39 0 0.0 0.0 0.00 0.16 0.16 77 1017.0
20260503025102 39 0 0.0 0.0 0.00 0.16 0.16 77 1016.9
20260503023924 39 0 0.0 0.0 0.00 0.16 0.16 79 1017.3
20260503023703 39 116 0.0 1.0 0.00 0.16 0.16 79 1017.3
20260503023624 39 116 0.0 1.0 0.00 0.16 0.16 79 1017.3
20260503023402 39 116 0.0 1.0 0.00 0.16 0.16 78 1017.3
20260503023103 39 116 0.0 1.0 0.00 0.16 0.16 77 1017.2
20260503022903 39 116 0.0 1.0 0.00 0.16 0.16 77 1017.4
20260503022603 39 117 0.0 1.0 0.00 0.16 0.16 79 1017.3
20260503022502 39 117 0.0 1.0 0.00 0.16 0.16 79 1017.3
20260503022124 39 117 0.0 1.0 0.00 0.16 0.16 79 1017.2
20260503021902 39 120 0.0 1.0 0.00 0.16 0.16 79 1017.3
20260503021702 39 112 0.0 1.0 0.00 0.16 0.16 79 1017.4
20260503021602 39 115 0.0 1.0 0.00 0.16 0.16 78 1017.2
20260503021503 39 116 0.0 1.0 0.00 0.16 0.16 78 1017.4
20260503021424 39 117 0.0 1.0 0.00 0.16 0.16 78 1017.2
20260503021003 39 120 0.0 1.0 0.00 0.16 0.16 78 1017.3
20260503020303 39 124 0.0 1.0 0.00 0.16 0.16 77 1017.4
20260503020202 39 123 0.0 1.0 0.00 0.16 0.16 77 1017.3
20260503015603 39 123 0.0 1.0 0.00 0.16 0.16 77 1017.3
20260503015203 39 119 0.0 1.0 0.00 0.16 0.16 77 1017.4
20260503015103 39 119 0.0 1.0 0.00 0.16 0.16 78 1017.4
20260503014903 39 0 0.0 0.0 0.00 0.16 0.16 79 1017.4
20260503014424 39 0 0.0 0.0 0.00 0.16 0.16 79 1017.1
20260503014103 39 0 0.0 0.0 0.00 0.16 0.16 78 1017.3
20260503013902 39 0 0.0 0.0 0.00 0.16 0.16 78 1017.3
20260503013703 39 0 0.0 0.0 0.00 0.16 0.16 78 1017.2
20260503013402 40 0 0.0 0.0 0.00 0.16 0.16 78 1017.3
20260503013303 39 0 0.0 0.0 0.00 0.16 0.16 78 1017.2
20260503013103 40 0 0.0 0.0 0.00 0.16 0.16 78 1017.3
20260503013003 40 0 0.0 0.0 0.00 0.16 0.16 78 1017.2
20260503012803 40 0 0.0 0.0 0.00 0.16 0.16 78 1017.3
20260503012703 40 0 0.0 0.0 0.00 0.16 0.16 78 1017.3
20260503012603 40 0 0.0 0.0 0.00 0.16 0.16 77 1017.2
20260503011902 40 0 0.0 0.0 0.00 0.16 0.16 76 1017.0
20260503011802 40 0 0.0 0.0 0.00 0.16 0.16 76 1017.2
20260503011623 40 0 0.0 0.0 0.00 0.16 0.16 76 1017.2
20260503011403 40 0 0.0 0.0 0.00 0.16 0.16 76 1017.3
20260503011003 40 0 0.0 0.0 0.00 0.16 0.16 75 1017.2
20260503010703 40 0 0.0 0.0 0.00 0.16 0.16 74 1017.3
20260503010203 40 0 0.0 0.0 0.00 0.16 0.16 73 1017.3
20260503010003 40 0 0.0 0.0 0.00 0.16 0.16 72 1017.2
20260503005903 40 0 0.0 0.0 0.00 0.16 0.16 72 1017.3
20260503005402 40 0 0.0 0.0 0.00 0.16 0.16 71 1017.0
20260503005203 40 0 0.0 0.0 0.00 0.16 0.16 70 1017.2
20260503004903 40 0 0.0 0.0 0.00 0.16 0.16 70 1017.0
20260503004824 40 0 0.0 0.0 0.00 0.16 0.16 70 1017.2
20260503004703 40 0 0.0 0.0 0.00 0.16 0.16 70 1017.1
20260503004603 40 0 0.0 0.0 0.00 0.16 0.16 70 1017.1
20260503004402 41 0 0.0 0.0 0.00 0.16 0.16 70 1017.2
20260503004303 41 0 0.0 0.0 0.00 0.16 0.16 69 1017.2
20260503004102 41 0 0.0 0.0 0.00 0.16 0.16 68 1017.1
20260503003902 41 0 0.0 0.0 0.00 0.16 0.16 67 1017.0
20260503003803 41 0 0.0 0.0 0.00 0.16 0.16 68 1017.1
20260503003603 41 0 0.0 0.0 0.00 0.16 0.16 67 1017.0
20260503003403 41 0 0.0 0.0 0.00 0.16 0.16 65 1017.2
20260503003124 41 0 0.0 0.0 0.00 0.16 0.16 64 1017.0
20260503003003 41 0 0.0 0.0 0.00 0.16 0.16 65 1017.0
20260503002903 41 0 0.0 0.0 0.00 0.16 0.16 64 1017.0
20260503002603 41 0 0.0 0.0 0.00 0.16 0.16 63 1016.9
20260503002403 41 0 0.0 0.0 0.00 0.16 0.16 64 1017.0
20260503002202 41 0 0.0 0.0 0.00 0.16 0.16 63 1017.2
20260503001824 41 0 0.0 0.0 0.00 0.16 0.16 64 1016.9
20260503001603 41 0 0.0 0.0 0.00 0.16 0.16 64 1016.9
20260503001403 42 0 0.0 0.0 0.00 0.16 0.16 64 1017.0
20260503001203 41 0 0.0 0.0 0.00 0.16 0.16 63 1017.0
20260503001103 41 0 0.0 0.0 0.00 0.16 0.16 63 1017.1
20260503000924 42 0 0.0 0.0 0.00 0.16 0.16 65 1017.0
20260503000703 42 0 0.0 0.0 0.00 0.16 0.16 65 1017.0
20260503000503 42 0 0.0 0.0 0.00 0.16 0.16 65 1017.0
20260503000403 42 0 0.0 0.0 0.00 0.16 0.16 64 1017.1
20260503000204 42 0 0.0 0.0 0.00 0.16 0.16 63 1017.1
20260502235924 42 94 0.0 1.0 0.00 0.16 0.16 63 1017.0
20260502235603 42 103 0.0 1.0 0.00 0.16 0.16 62 1016.8
20260502235402 42 103 0.0 1.0 0.00 0.16 0.16 60 1016.9
20260502235203 42 94 0.0 1.0 0.00 0.16 0.16 61 1016.9
20260502235103 42 89 0.0 1.0 0.00 0.16 0.16 61 1017.0
20260502234803 42 88 0.0 2.0 0.00 0.16 0.16 59 1017.0
20260502234602 42 88 1.0 3.0 0.00 0.16 0.16 62 1016.9
20260502234403 42 90 1.0 3.0 0.00 0.16 0.16 60 1016.7
20260502234202 42 93 1.0 3.0 0.00 0.16 0.16 59 1016.9
20260502234102 42 88 1.0 3.0 0.00 0.16 0.16 59 1016.8
20260502233903 42 94 1.0 3.0 0.00 0.16 0.16 61 1016.8
20260502233603 42 89 1.0 4.0 0.00 0.16 0.16 63 1016.9
20260502233402 42 85 1.0 4.0 0.00 0.16 0.16 62 1017.0
20260502233203 42 82 1.0 4.0 0.00 0.16 0.16 60 1017.1
20260502233103 42 81 1.0 4.0 0.00 0.16 0.16 60 1016.8
20260502232803 42 78 1.0 4.0 0.00 0.16 0.16 61 1017.1
20260502232724 42 82 1.0 4.0 0.00 0.16 0.16 61 1016.9
20260502232424 42 74 1.0 3.0 0.00 0.16 0.16 62 1016.9
20260502232102 42 88 1.0 3.0 0.00 0.16 0.16 60 1016.9
20260502232003 42 92 1.0 3.0 0.00 0.16 0.16 60 1017.0
20260502231902 42 90 1.0 3.0 0.00 0.16 0.16 60 1017.0
20260502231623 43 79 1.0 3.0 0.00 0.16 0.16 60 1017.1
20260502231124 43 57 1.0 3.0 0.00 0.16 0.16 63 1016.9
20260502231002 43 44 1.0 3.0 0.00 0.16 0.16 62 1016.9
20260502230903 43 30 1.0 3.0 0.00 0.16 0.16 61 1017.1
20260502230603 43 27 1.0 3.0 0.00 0.16 0.16 61 1017.1
20260502230203 43 114 1.0 3.0 0.00 0.16 0.16 62 1017.0
20260502230003 43 107 1.0 3.0 0.00 0.16 0.16 61 1017.0
20260502225924 43 109 1.0 3.0 0.00 0.16 0.16 61 1017.1
20260502225603 43 110 1.0 3.0 0.00 0.16 0.16 61 1017.1
20260502225203 43 96 1.0 2.0 0.00 0.16 0.16 61 1016.9
20260502224603 43 111 1.0 2.0 0.00 0.16 0.16 62 1016.9
20260502224224 43 93 1.0 6.0 0.00 0.16 0.16 63 1017.1
20260502224103 43 87 1.0 6.0 0.00 0.16 0.16 62 1017.3
20260502224003 44 86 1.0 6.0 0.00 0.16 0.16 62 1017.2
20260502223803 43 83 1.0 6.0 0.00 0.16 0.16 64 1017.0
20260502223603 43 80 1.0 6.0 0.00 0.16 0.16 63 1017.1
20260502223323 43 81 1.0 6.0 0.00 0.16 0.16 62 1017.2
20260502223103 43 101 1.0 4.0 0.00 0.16 0.16 63 1017.1
20260502222703 44 136 1.0 4.0 0.00 0.16 0.16 62 1017.0
20260502222603 43 186 2.0 6.0 0.00 0.16 0.16 63 1017.2
20260502222403 43 234 2.0 6.0 0.00 0.16 0.16 62 1017.1
20260502222305 43 232 2.0 6.0 0.00 0.16 0.16 62 1017.0
20260502221903 43 216 2.0 6.0 0.00 0.16 0.16 61 1016.9
20260502221803 42 216 2.0 6.0 0.00 0.16 0.16 62 1016.8
20260502221703 42 236 2.0 6.0 0.00 0.16 0.16 61 1017.1
20260502221603 43 104 2.0 6.0 0.00 0.16 0.16 62 1017.1
20260502221523 43 67 2.0 6.0 0.00 0.16 0.16 61 1017.0
20260502221102 42 53 2.0 4.0 0.00 0.16 0.16 64 1016.9
20260502221024 42 55 2.0 4.0 0.00 0.16 0.16 64 1017.2
20260502220602 42 40 2.0 4.0 0.00 0.16 0.16 63 1017.0
20260502220503 42 50 2.0 4.0 0.00 0.16 0.16 63 1017.1
20260502220403 42 60 1.0 4.0 0.00 0.16 0.16 64 1017.1
20260502215903 42 43 2.0 6.0 0.00 0.16 0.16 63 1017.2
20260502215623 42 39 2.0 8.0 0.00 0.16 0.16 64 1017.2
20260502215103 42 17 3.0 8.0 0.00 0.16 0.16 63 1017.1
20260502214603 42 19 2.0 6.0 0.00 0.16 0.16 63 1017.0
20260502214503 42 29 2.0 6.0 0.00 0.16 0.16 62 1017.0
20260502214403 42 27 2.0 7.0 0.00 0.16 0.16 62 1017.1
20260502214003 42 49 2.0 7.0 0.00 0.16 0.16 62 1017.0
20260502213603 42 27 3.0 8.0 0.00 0.16 0.16 62 1016.9
20260502213503 42 19 3.0 8.0 0.00 0.16 0.16 62 1017.0
20260502212903 42 332 3.0 9.0 0.00 0.16 0.16 61 1017.0
20260502212802 42 323 4.0 9.0 0.00 0.16 0.16 61 1017.1
20260502212603 42 330 3.0 9.0 0.00 0.16 0.16 62 1016.8
20260502212304 42 330 3.0 9.0 0.00 0.16 0.16 62 1016.8
20260502212102 43 334 4.0 10.0 0.00 0.16 0.16 61 1016.9
20260502212002 43 346 4.0 10.0 0.00 0.16 0.16 61 1016.8
20260502211903 43 349 4.0 10.0 0.00 0.16 0.16 60 1016.8
20260502211503 42 7 4.0 10.0 0.00 0.16 0.16 60 1016.7
20260502211403 42 5 4.0 10.0 0.00 0.16 0.16 59 1016.8
20260502211003 43 13 3.0 8.0 0.00 0.16 0.16 59 1016.9
20260502210703 43 15 3.0 7.0 0.00 0.16 0.16 59 1016.8
20260502210603 43 3 3.0 8.0 0.00 0.16 0.16 58 1016.8
20260502210403 43 9 4.0 8.0 0.00 0.16 0.16 59 1016.8
20260502205903 44 1 4.0 8.0 0.00 0.16 0.16 58 1016.9
20260502205803 43 353 4.0 8.0 0.00 0.16 0.16 60 1016.8
20260502205703 43 351 4.0 8.0 0.00 0.16 0.16 58 1016.8
20260502205603 44 360 4.0 8.0 0.00 0.16 0.16 58 1016.8
20260502205403 44 356 4.0 9.0 0.00 0.16 0.16 59 1016.8
20260502205305 44 349 4.0 9.0 0.00 0.16 0.16 57 1016.8
20260502205103 44 350 4.0 9.0 0.00 0.16 0.16 57 1016.8
20260502205003 44 348 4.0 9.0 0.00 0.16 0.16 58 1016.7
20260502204603 44 316 4.0 9.0 0.00 0.16 0.16 57 1016.8
20260502203903 44 305 5.0 9.0 0.00 0.16 0.16 55 1016.6
20260502203503 44 335 5.0 10.0 0.00 0.16 0.16 54 1016.8
20260502203324 44 351 4.0 10.0 0.00 0.16 0.16 53 1016.8
20260502203203 44 18 4.0 10.0 0.00 0.16 0.16 53 1016.8
20260502203102 44 19 4.0 10.0 0.00 0.16 0.16 53 1016.8
20260502202803 45 337 4.0 10.0 0.00 0.16 0.16 51 1016.9
20260502202703 45 335 4.0 10.0 0.00 0.16 0.16 51 1016.7
20260502202603 45 316 4.0 10.0 0.00 0.16 0.16 52 1016.8
20260502202103 45 292 4.0 11.0 0.00 0.16 0.16 50 1016.7
20260502201803 45 360 4.0 11.0 0.00 0.16 0.16 52 1016.7
20260502201724 45 353 4.0 11.0 0.00 0.16 0.16 50 1016.8
20260502201603 44 350 4.0 11.0 0.00 0.16 0.16 52 1016.7
20260502201503 44 333 4.0 11.0 0.00 0.16 0.16 52 1016.8
20260502201424 45 324 4.0 11.0 0.00 0.16 0.16 53 1016.7
20260502201123 45 351 4.0 8.0 0.00 0.17 0.16 51 1016.7
20260502201003 45 358 4.0 8.0 0.00 0.17 0.16 52 1016.9
20260502200903 45 349 4.0 8.0 0.00 0.17 0.16 51 1016.9
20260502200403 45 39 3.0 8.0 0.00 0.17 0.16 50 1016.8
20260502200303 45 40 3.0 10.0 0.00 0.17 0.16 51 1016.9
20260502195903 45 347 4.0 10.0 0.00 0.17 0.16 50 1016.8
20260502195703 45 315 3.0 10.0 0.00 0.17 0.16 54 1016.7
20260502195602 45 292 4.0 10.0 0.00 0.17 0.16 52 1016.6
20260502195424 44 298 4.0 10.0 0.00 0.17 0.16 52 1016.8
20260502195103 45 328 4.0 10.0 0.00 0.17 0.16 49 1016.8
20260502194903 44 346 4.0 9.0 0.00 0.17 0.16 52 1016.8
20260502194602 44 4 4.0 8.0 0.00 0.17 0.16 51 1016.9
20260502194203 44 18 4.0 8.0 0.00 0.17 0.16 49 1016.9
20260502193903 45 341 5.0 11.0 0.00 0.17 0.16 49 1017.0
20260502193803 45 322 5.0 11.0 0.00 0.17 0.16 50 1017.0
20260502193523 46 307 5.0 11.0 0.00 0.17 0.16 48 1016.9
20260502193424 46 306 5.0 11.0 0.00 0.17 0.16 51 1016.9
20260502193003 45 314 5.0 11.0 0.00 0.17 0.16 49 1017.0
20260502192403 46 296 4.0 10.0 0.00 0.17 0.16 53 1017.1
20260502192305 46 295 4.0 10.0 0.00 0.17 0.16 53 1016.9
20260502191703 46 273 5.0 13.0 0.00 0.17 0.16 50 1017.1
20260502191624 46 275 5.0 13.0 0.00 0.18 0.16 51 1017.1
20260502191502 45 279 5.0 13.0 0.00 0.18 0.16 48 1016.9
20260502191302 45 275 5.0 13.0 0.00 0.18 0.16 49 1017.0
20260502191003 45 284 5.0 13.0 0.00 0.18 0.16 50 1017.1
20260502190902 45 286 5.0 13.0 0.00 0.18 0.16 51 1017.1
20260502190824 45 287 5.0 13.0 0.00 0.18 0.16 49 1017.2
20260502190703 45 295 5.0 10.0 0.00 0.18 0.16 55 1017.1
20260502190602 46 289 5.0 10.0 0.00 0.18 0.16 50 1017.1
20260502190424 46 303 4.0 10.0 0.00 0.19 0.16 51 1017.2
20260502190202 46 305 4.0 10.0 0.00 0.19 0.16 52 1017.2
20260502190003 47 319 4.0 10.0 0.00 0.19 0.16 52 1017.2
20260502185902 47 331 4.0 11.0 0.00 0.19 0.16 51 1017.1
20260502185803 47 355 3.0 11.0 0.00 0.19 0.16 55 1017.2
20260502185602 47 352 4.0 11.0 0.00 0.19 0.16 51 1017.1
20260502185324 47 360 4.0 11.0 0.00 0.20 0.16 52 1017.1